Location: Poughquag
(41.6090°N, 73.6820°W)
Time: 18:22:52
(UTC-04:00)

JY1SAT - Pass Details

Date: 18 September 2024
Orbit: 527 x 537 km, 97.5° (Epoch: 10 October)

Event Time Altitude Azimuth Distance (km) Brightness Sun altitude
Exits shadow 22:17:30 12° 335° (NNW) 1,672 ? -35.1°
Drops below altitude 10° 22:17:48 10° 336° (NNW) 1,795 ? -35.2°
Sets 22:19:59 0° 343° (NNW) 2,694 ? -35.5°
